TimeCDT,TemperatureF,Dew PointF,Humidity,Sea Level PressureIn,VisibilityMPH,Wind Direction,Wind SpeedMPH,Gust SpeedMPH,PrecipitationIn,Events,Conditions,WindDirDegrees,DateUTC
12:53 AM,80.1,75.9,87,30.00,10.0,SW,5.8,-,N/A,,Clear,230,2013-07-23 05:53:00
1:53 AM,80.1,75.0,85,30.00,10.0,WSW,4.6,-,N/A,,Mostly Cloudy,240,2013-07-23 06:53:00
2:53 AM,80.1,75.9,87,29.99,10.0,WSW,8.1,-,N/A,,Overcast,250,2013-07-23 07:53:00
3:53 AM,79.0,75.9,90,29.98,10.0,SW,6.9,-,N/A,,Mostly Cloudy,220,2013-07-23 08:53:00
4:53 AM,78.1,75.0,90,29.99,9.0,SW,3.5,-,N/A,,Mostly Cloudy,230,2013-07-23 09:53:00
5:22 AM,78.8,75.2,89,30.00,8.0,SW,4.6,-,N/A,,Overcast,230,2013-07-23 10:22:00
5:39 AM,78.8,75.2,89,30.00,9.0,WSW,5.8,-,N/A,,Overcast,240,2013-07-23 10:39:00
5:53 AM,79.0,75.9,90,30.00,9.0,WSW,8.1,-,N/A,,Overcast,240,2013-07-23 10:53:00
6:12 AM,78.8,75.2,89,30.01,9.0,WSW,6.9,-,N/A,,Overcast,240,2013-07-23 11:12:00
6:53 AM,80.1,75.9,87,30.01,9.0,WSW,9.2,-,N/A,,Overcast,250,2013-07-23 11:53:00
7:11 AM,80.6,75.2,84,30.01,10.0,WSW,10.4,-,N/A,,Overcast,250,2013-07-23 12:11:00
7:53 AM,82.0,75.9,82,30.01,10.0,WSW,11.5,-,N/A,,Overcast,240,2013-07-23 12:53:00
8:53 AM,84.9,75.0,72,30.03,10.0,West,12.7,-,N/A,,Mostly Cloudy,260,2013-07-23 13:53:00
9:53 AM,87.1,73.9,65,30.04,10.0,West,10.4,-,N/A,,Mostly Cloudy,270,2013-07-23 14:53:00
10:53 AM,87.1,73.0,63,30.04,10.0,West,10.4,-,N/A,,Mostly Cloudy,280,2013-07-23 15:53:00
11:53 AM,91.0,72.0,53,30.02,10.0,West,16.1,19.6,N/A,,Scattered Clouds,260,2013-07-23 16:53:00
12:53 PM,93.0,71.1,49,30.00,10.0,WSW,9.2,20.7,N/A,,Partly Cloudy,240,2013-07-23 17:53:00
1:53 PM,95.0,71.1,46,29.98,10.0,SW,11.5,-,N/A,,Partly Cloudy,220,2013-07-23 18:53:00
2:53 PM,95.0,69.1,43,29.96,10.0,West,8.1,19.6,N/A,,Scattered Clouds,260,2013-07-23 19:53:00
3:53 PM,97.0,69.1,40,29.94,10.0,West,10.4,-,N/A,,Partly Cloudy,270,2013-07-23 20:53:00
4:53 PM,96.1,69.1,41,29.91,10.0,SW,6.9,-,N/A,,Partly Cloudy,220,2013-07-23 21:53:00
5:53 PM,93.9,69.1,44,29.90,10.0,SW,8.1,-,N/A,,Clear,230,2013-07-23 22:53:00
6:53 PM,93.0,70.0,47,29.89,10.0,SW,9.2,-,N/A,,Clear,220,2013-07-23 23:53:00
7:53 PM,89.1,72.0,57,29.89,10.0,SSW,5.8,-,N/A,,Clear,200,2013-07-24 00:53:00
8:53 PM,84.0,72.0,67,29.91,10.0,Calm,Calm,-,N/A,,Clear,0,2013-07-24 01:53:00
9:53 PM,80.1,73.0,79,29.92,10.0,Calm,Calm,-,N/A,,Clear,0,2013-07-24 02:53:00
10:53 PM,79.0,73.9,84,29.95,10.0,SW,4.6,-,N/A,,Clear,230,2013-07-24 03:53:00
11:53 PM,81.0,73.9,79,29.95,10.0,SW,3.5,-,N/A,,Clear,220,2013-07-24 04:53:00